SCP
0 0 0 0 0 -0 0 0 0 0 0 0 0 0 0 0 0 0 0 0 0 0 0 0 0 0 0 0 0 0 0 0 0 0 -0 -0 0 0 0 0 -0 0 0 -0
0 0 0 0 0 0 0 0 -0 0 0 0 0 0 0 0 0 0 0 0 0 0 0 0 0 0 0 0 0 0 0 0 0 -0 0 0 -0 0 0 0 0 0 0 -0
0 0 0 0 0 0 0 0 0 0 0 0 0 0 0 0 0 0 0 0 0 0 0 0 0 -0 0 0 0 0 0 0 0 -0 -0 0 0 -0 -0 0 0 -0 0 0
0 0 0 0 0 0 0 0 0 0 0 0 0 0 0 0 0 0 0 0 0 0 0 0 0 -0 0 -0 0 0 0 0 0 -0 -0 -0 -0 0 0 -0 0 0 -0 -0
0 0 0 0 0 0 0 0 0 0 0 0 0 0 0 0 0 0 0 0 0 0 0 0 0 -0 0 0 0 0 0 -0 -0 -0 -0 0 0 0 0 0 0 0 0 -0
0 0 0 0 0 0 0 0 0 0 0 0 0 0 0 0 0 0 0 0 0 0 0 0 0 0 0 0 0 0 0 -0 0 -0 -0 -0 0 0 0 0 0 0 0 0
0 0 0 0 0 0 0 0 0 0 0 0 0 0 0 0 0 0 0 0 0 0 0 0 0 0 0 0 0 0 0 -0 0 0 -0 0 0 0 0 0 0 0 0 0
0 0 0 0 0 0 0 0 0 0 0 0 0 0 0 0 0 0 0 0 0 0 0 0 0 -0 0 0 0 0 0 0 0 0 0 0 0 0 0 0 -0 -0 -0 -0
0 0 0 0 0 0 0 0 0 0 0 0 0 0 0 0 0 0 0 0 0 0 0 0 0 -0 -0 0 0 0 0 0 -0 -0 0 0 0 -0 -0 0 -0 -0 -0 -0
0 0 0 0 0 0 0 0 0 0 0 0 0 0 0 0 0 0 0 0 0 0 0 0 0 -0 -0 0 0 0 0 0 -0 0 0 0 -0 0 -0 -0 -0 -0 -0 0
0 0 0 0 0 0 0 0 0 0 0 0 0 0 0 0 0 0 0 0 0 0 0 0 0 -0 0 0 0 0 -0 -0 -0 0 0 0 -0 -0 -0 -0 0 -0 -0 0
0 0 0 0 0 0 0 0 0 0 0 0 0 0 0 0 0 0 0 0 0 0 0 0 0 -0 0 0 0 0 -0 0 0 0 0 -0 -0 -0 -0 0 0 0 0 0
0 0 0 0 0 0 0 0 0 0 0 0 0 0 0 0 0 0 0 0 0 0 0 0 0 0 0 0 0 0 -0 0 0 0 0 -0 0 -0 -0 0 0 0 0 0
0 0 0 0 0 0 0 0 0 0 0 0 0 0 0 0 0 0 0 -0 0 0 0 0 0 0 0 0 0 0 0 -0 0 -0 0 0 -0 -0 -0 0 0 0 0 0
0 0 0 0 0 0 0 0 0 0 0 0 0 0 0 0 0 0 0 0 0 0 0 0 0 0 -0 -0 0 0 -0 -0 0 0 0 0 0 0 0 0 0 0 0 0
0 0 0 0 0 0 0 0 0 0 0 0 0 0 0 0 0 0 0 0 0 0 0 0 0 0 -0 -0 0 0 0 -0 -0 0 0 0 -0 0 0 0 0 0 0 0
0 0 0 0 0 0 0 0 0 0 0 0 0 0 0 0 0 0 0 0 0 0 0 0 0 0 0 0 0 0 0 -0 -0 -0 0 0 0 0 0 0 0 0 0 0
0 0 0 0 0 0 0 0 0 0 0 0 0 0 0 0 0 0 0 0 0 0 0 0 0 0 -0 0 -0 0 0 -0 -0 -0 -0 0 0 0 0 0 0 0 0 0
0 0 0 0 0 0 0 0 0 0 0 0 0 0 0 0 0 -0 0 0 0 0 0 0 0 0 -0 -0 0 0 0 0 0 0 0 0 0 0 0 0 0 0 0 0
0 0 0 0 0 0 0 0 0 0 0 0 0 0 0 0 0 0 0 0 0 0 0 0 0 0 0 0 0 -0 -0 0 0 -0 0 0 0 0 0 0 0 0 0 0
0 0 0 0 0 0 0 0 0 0 0 0 0 0 0 0 0 -0 0 0 0 0 0 0 0 0 0 0 0 -0 -0 0 0 -0 0 -0 -0 0 0 0 0 0 0 0
0 0 0 0 0 0 0 0 0 0 0 0 0 0 -0 -0 -0 0 0 0 0 0 0 0 0 0 0 0 0 -0 -0 -0 0 0 0 -0 -0 0 0 0 0 0 0 0
0 0 0 0 0 0 0 0 0 0 0 0 0 0 0 0 0 0 0 0 0 0 0 0 0 0 0 0 0 -0 -0 -0 0 0 0 0 0 0 0 0 0 0 0 0
0 0 0 0 0 0 0 0 0 0 0 0 0 0 0 0 0 -0 0 0 0 0 0 0 0 0 0 0 0 -0 -0 0 0 0 0 0 0 0 0 0 0 0 0 0
0 0 0 0 0 0 0 0 0 0 0 0 -0 0 0 0 -0 0 0 0 0 0 0 0 0 0 0 0 0 0 -0 -0 0 0 0 0 0 0 0 0 0 0 0 0
0 0 0 0 0 0 0 0 0 0 0 -0 0 0 0 0 0 0 0 0 0 0 0 0 0 0 0 0 0 -0 -0 -0 -0 0 0 0 0 0 0 0 0 0 0 0
0 0 0 0 0 0 0 0 0 0 -0 0 0 0 0 -0 0 0 0 0 0 0 0 0 0 0 0 0 0 -0 -0 -0 -0 -0 0 0 0 0 0 0 0 0 0 0
Wind_Speed_500mb
62 63 66 69 76 79 73 27 16 26 38 17 24 21 36 43 22 30 28 30 32 37 46 30 38 19 36 33 6 11 9 8 16 41 54 44 36 29 30 13 18 24 26 26
61 62 63 64 63 74 71 30 38 21 33 13 16 31 32 31 31 26 30 24 37 44 37 31 21 42 49 47 12 8 10 7 15 23 1 12 13 22 32 21 17 35 27 22
59 65 64 58 54 60 51 18 15 42 37 43 34 33 32 35 39 32 32 36 43 40 44 44 46 51 16 40 10 25 16 9 18 28 43 40 40 28 32 35 19 35 36 42
60 63 66 58 53 46 35 17 21 26 17 30 37 35 37 35 39 42 47 29 39 45 43 48 48 56 55 41 15 6 5 14 30 44 48 50 53 50 45 41 41 37 36 41
56 57 58 61 50 46 21 23 32 29 48 46 45 32 31 41 41 41 33 37 45 42 42 45 58 59 50 23 9 6 7 9 32 47 51 34 37 8 19 20 31 29 33 43
55 52 52 53 51 38 21 29 27 25 29 31 29 30 37 43 48 27 51 42 42 43 47 68 78 76 68 16 10 5 4 8 10 18 38 47 4 14 22 23 30 17 21 33
54 52 45 46 43 33 32 22 23 13 16 23 32 47 51 43 41 44 45 44 34 47 66 75 68 43 21 20 12 7 4 18 7 19 35 17 10 18 20 20 37 15 21 37
54 50 43 46 42 34 34 30 12 8 10 36 40 51 41 49 48 40 40 46 41 49 49 32 33 24 6 11 7 11 18 17 9 9 23 9 14 28 24 13 35 6 26 40
48 47 43 40 43 41 38 32 20 17 13 11 54 50 54 31 30 24 40 45 50 31 24 23 23 20 16 15 20 8 33 18 12 18 17 11 14 49 64 14 11 33 56 51
44 43 42 40 43 39 40 37 29 19 16 37 40 42 35 41 34 22 43 50 44 36 20 20 17 18 23 12 21 23 21 18 17 19 12 5 34 45 72 11 18 63 63 60
45 44 42 41 44 41 40 37 33 26 17 59 26 28 52 58 47 25 38 23 17 17 15 10 13 12 10 11 26 15 10 13 11 15 10 10 50 23 14 24 52 49 63 53
38 42 43 40 42 42 43 44 32 26 33 57 84 53 42 42 41 46 26 30 22 9 8 9 7 15 10 22 10 12 7 6 9 7 9 18 34 29 40 49 50 43 47 55
41 40 43 43 38 38 43 38 29 21 28 52 36 42 24 26 28 23 24 2 13 13 18 10 5 10 3 9 11 14 12 7 8 15 5 31 29 49 62 53 30 36 39 45
44 43 44 45 37 36 34 33 29 25 17 14 20 25 49 33 26 28 35 42 23 18 27 20 8 8 9 9 11 8 4 22 19 16 9 41 7 56 58 53 28 29 36 54
44 41 38 36 31 20 28 32 36 33 14 13 39 64 18 6 16 47 33 28 22 15 12 10 12 14 7 12 6 2 4 7 8 8 34 11 35 51 36 22 26 32 46 62
40 36 34 34 25 21 22 11 3 6 20 13 10 36 44 31 23 14 31 31 27 16 11 20 12 10 6 7 6 7 5 13 15 11 37 30 31 28 25 22 25 38 56 68
34 34 30 22 23 24 21 10 7 9 26 10 15 15 10 8 13 23 31 29 20 18 12 11 26 15 10 4 6 9 10 9 9 20 23 14 23 17 27 25 32 43 58 69
27 27 22 20 23 25 32 24 28 24 16 10 8 11 23 11 21 24 23 21 17 15 14 18 19 11 10 4 10 8 10 5 7 17 16 11 12 24 29 39 45 50 52 54
23 24 23 29 23 10 8 21 20 22 17 9 9 9 14 10 27 26 25 21 10 10 9 18 13 12 4 5 11 4 8 6 5 14 14 13 18 21 22 33 45 54 54 57
19 22 12 8 5 15 23 3 12 13 13 15 12 27 26 33 27 19 14 12 5 7 12 13 6 4 11 13 10 7 3 5 7 4 11 11 12 17 24 31 33 44 49 58
15 7 7 13 16 8 8 10 10 11 9 15 19 36 27 31 22 14 13 6 3 4 6 5 4 3 10 11 10 8 7 3 7 12 10 12 15 23 31 35 37 42 47 54
18 21 28 18 9 9 7 6 8 12 10 19 21 17 26 8 18 11 10 4 3 9 5 5 3 8 14 10 16 9 6 4 7 12 12 13 17 19 25 32 39 41 46 50
37 12 8 8 10 9 10 11 10 10 12 9 10 6 7 13 16 15 6 12 9 3 5 5 3 23 15 14 15 7 6 7 9 15 14 13 18 22 28 34 34 41 46 54
10 9 10 10 10 12 16 19 18 9 24 13 22 10 7 14 3 9 11 8 6 6 5 2 8 21 19 14 13 16 12 9 10 15 15 17 21 29 32 37 36 45 46 42
12 11 11 17 34 35 24 19 21 21 9 20 15 11 15 7 14 6 4 4 10 5 4 9 26 23 21 17 17 16 12 12 13 15 18 18 22 31 37 37 33 36 39 45
13 18 11 36 28 27 24 25 26 19 16 18 6 7 9 14 7 8 10 7 8 4 8 27 33 29 28 20 19 18 15 18 18 18 22 25 25 29 35 40 34 32 35 38
14 15 38 48 51 45 46 44 19 17 13 3 8 9 11 7 7 8 7 8 10 19 25 22 34 33 35 26 24 22 20 20 23 24 24 24 29 31 30 31 32 27 29 32
Wind_Direction_500mb
345 349 352 353 349 351 0 351 331 346 348 334 360 352 332 317 311 315 321 316 313 318 317 322 318 280 297 320 269 266 262 277 277 286 281 271 272 232 231 227 247 240 256 271
345 348 350 354 358 353 350 326 313 5 345 350 327 335 329 325 324 321 331 315 312 305 313 308 279 287 303 297 322 241 195 236 299 297 297 45 273 240 230 243 258 257 261 261
343 345 347 351 353 352 344 310 321 341 331 351 341 334 316 319 333 338 327 313 314 313 326 314 302 316 304 302 217 273 163 235 231 266 282 303 291 264 262 243 252 263 248 268
334 338 340 345 347 358 351 335 349 360 318 323 316 298 307 322 332 330 324 325 320 319 310 307 321 315 316 329 94 125 236 262 274 274 270 271 273 279 273 257 246 254 272 255
322 328 332 337 346 352 350 351 338 322 306 322 308 315 346 327 323 324 325 321 313 309 314 333 321 315 305 311 157 261 223 273 296 290 285 272 265 25 1 348 318 306 301 285
312 319 325 335 343 0 337 335 325 311 296 329 323 329 321 322 329 325 318 308 312 324 337 322 306 289 279 257 163 238 240 291 297 281 310 308 89 50 5 310 294 288 272 294
312 311 315 324 327 344 332 318 324 302 290 308 315 312 328 321 321 303 309 319 331 335 326 313 311 335 53 135 199 160 239 287 265 288 303 307 76 9 343 297 290 307 273 288
308 307 308 310 314 322 320 321 306 288 280 307 302 322 321 315 321 319 316 333 347 335 322 324 334 328 348 13 254 157 209 274 275 278 311 276 29 337 326 324 297 261 306 295
314 310 303 297 302 308 309 310 276 251 283 262 315 305 310 320 319 314 322 324 335 325 321 326 337 326 332 329 319 324 341 307 262 299 301 303 352 335 327 314 259 335 333 328
318 315 306 296 297 302 312 302 298 249 261 283 302 301 303 306 303 295 308 343 318 347 331 336 336 322 344 344 324 332 334 346 325 324 298 91 5 347 325 19 318 316 317 314
318 319 315 297 294 300 308 298 293 265 251 291 281 292 302 296 288 286 325 326 3 323 352 344 346 326 322 314 313 322 326 335 345 328 306 334 7 348 17 295 304 318 318 332
317 323 322 308 297 293 294 290 287 286 243 276 298 297 293 263 266 271 285 290 311 334 336 343 314 309 302 319 312 341 348 25 312 294 316 351 350 324 327 332 315 327 332 356
309 312 320 320 300 295 285 285 286 283 276 299 290 305 322 257 247 249 251 233 11 329 339 319 271 281 327 310 335 320 329 39 285 326 62 345 318 341 345 346 342 347 23 36
309 307 313 318 310 287 273 277 286 277 281 276 292 304 301 283 256 247 245 258 298 305 307 295 251 284 296 305 296 301 337 315 325 276 344 328 339 341 346 351 5 38 55 63
307 312 309 310 306 286 271 280 281 268 244 297 297 308 339 311 259 238 232 239 263 269 285 253 285 287 297 300 319 318 1 330 320 310 327 303 299 338 357 18 38 61 76 78
303 305 304 304 300 281 273 304 315 282 217 290 304 305 295 262 245 232 224 231 233 232 255 283 259 266 267 311 291 215 275 272 281 277 324 326 343 10 38 78 73 80 91 87
304 310 302 303 291 276 255 250 259 229 196 256 287 277 237 243 215 218 220 211 225 236 255 255 258 270 222 258 283 199 298 317 332 337 346 342 13 37 60 104 102 100 101 101
311 313 303 292 298 287 280 289 268 251 202 248 271 275 282 233 243 221 201 220 219 225 254 260 263 257 238 251 232 246 303 342 26 13 19 15 39 74 77 106 113 105 99 104
317 310 302 302 278 264 270 278 261 205 214 265 256 263 289 256 256 276 201 222 231 200 239 262 265 269 213 315 359 340 333 3 53 45 62 51 79 99 95 103 105 109 103 109
309 297 292 285 255 274 276 216 175 212 224 235 254 247 264 288 298 241 14 301 238 234 215 265 285 304 86 67 59 27 69 94 55 45 91 94 90 119 126 120 120 116 117 119
297 274 257 285 294 269 236 222 206 198 242 224 242 236 251 254 256 274 236 235 225 278 233 251 271 275 103 93 104 87 113 70 53 76 78 114 136 136 133 136 132 128 128 123
285 295 296 276 241 232 257 224 206 210 247 186 240 233 226 249 247 259 262 274 290 250 215 209 244 105 112 125 131 132 129 103 93 89 94 106 127 139 139 132 132 133 126 127
274 280 256 228 212 232 224 211 211 221 223 297 255 252 249 215 235 242 240 222 224 261 244 205 72 133 129 128 142 144 143 119 121 108 103 114 125 134 144 141 137 134 129 125
235 233 246 222 204 229 211 245 282 231 248 318 337 355 12 309 316 234 213 240 184 225 245 53 129 122 134 130 142 143 138 135 132 124 118 122 136 138 140 141 143 141 128 125
239 223 237 222 235 264 268 255 301 283 315 329 329 283 235 272 243 231 278 252 232 42 39 104 119 127 131 126 144 146 138 131 141 138 134 138 143 148 144 136 139 143 143 147
237 228 257 261 273 268 303 318 315 339 334 335 299 261 241 227 255 217 226 268 11 74 109 131 136 133 140 133 146 152 146 141 135 141 143 139 137 146 147 144 144 148 141 143
229 233 231 261 279 280 286 290 292 304 320 198 264 254 233 256 220 217 221 199 137 140 126 117 134 139 148 152 151 151 147 143 145 139 137 138 144 148 146 147 147 146 149 148
Wind_Speed_850mb
62 63 66 69 76 79 73 27 16 26 38 17 24 21 36 43 22 30 28 30 32 37 46 30 38 19 36 33 6 11 9 8 16 41 54 44 36 29 30 13 18 24 26 26
61 62 63 64 63 74 71 30 38 21 33 13 16 31 32 31 31 26 30 24 37 44 37 31 21 42 49 47 12 8 10 7 15 23 1 12 13 22 32 21 17 35 27 22
59 65 64 58 54 60 51 18 15 42 37 43 34 33 32 35 39 32 32 36 43 40 44 44 46 51 16 40 10 25 16 9 18 28 43 40 40 28 32 35 19 35 36 42
60 63 66 58 53 46 35 17 21 26 17 30 37 35 37 35 39 42 47 29 39 45 43 48 48 56 55 41 15 6 5 14 30 44 48 50 53 50 45 41 41 37 36 41
56 57 58 61 50 46 21 23 32 29 48 46 45 32 31 41 41 41 33 37 45 42 42 45 58 59 50 23 9 6 7 9 32 47 51 34 37 8 19 20 31 29 33 43
55 52 52 53 51 38 21 29 27 25 29 31 29 30 37 43 48 27 51 42 42 43 47 68 78 76 68 16 10 5 4 8 10 18 38 47 4 14 22 23 30 17 21 33
54 52 45 46 43 33 32 22 23 13 16 23 32 47 51 43 41 44 45 44 34 47 66 75 68 43 21 20 12 7 4 18 7 19 35 17 10 18 20 20 37 15 21 37
54 50 43 46 42 34 34 30 12 8 10 36 40 51 41 49 48 40 40 46 41 49 49 32 33 24 6 11 7 11 18 17 9 9 23 9 14 28 24 13 35 6 26 40
48 47 43 40 43 41 38 32 20 17 13 11 54 50 54 31 30 24 40 45 50 31 24 23 23 20 16 15 20 8 33 18 12 18 17 11 14 49 64 14 11 33 56 51
44 43 42 40 43 39 40 37 29 19 16 37 40 42 35 41 34 22 43 50 44 36 20 20 17 18 23 12 21 23 21 18 17 19 12 5 34 45 72 11 18 63 63 60
45 44 42 41 44 41 40 37 33 26 17 59 26 28 52 58 47 25 38 23 17 17 15 10 13 12 10 11 26 15 10 13 11 15 10 10 50 23 14 24 52 49 63 53
38 42 43 40 42 42 43 44 32 26 33 57 84 53 42 42 41 46 26 30 22 9 8 9 7 15 10 22 10 12 7 6 9 7 9 18 34 29 40 49 50 43 47 55
41 40 43 43 38 38 43 38 29 21 28 52 36 42 24 26 28 23 24 2 13 13 18 10 5 10 3 9 11 14 12 7 8 15 5 31 29 49 62 53 30 36 39 45
44 43 44 45 37 36 34 33 29 25 17 14 20 25 49 33 26 28 35 42 23 18 27 20 8 8 9 9 11 8 4 22 19 16 9 41 7 56 58 53 28 29 36 54
44 41 38 36 31 20 28 32 36 33 14 13 39 64 18 6 16 47 33 28 22 15 12 10 12 14 7 12 6 2 4 7 8 8 34 11 35 51 36 22 26 32 46 62
40 36 34 34 25 21 22 11 3 6 20 13 10 36 44 31 23 14 31 31 27 16 11 20 12 10 6 7 6 7 5 13 15 11 37 30 31 28 25 22 25 38 56 68
34 34 30 22 23 24 21 10 7 9 26 10 15 15 10 8 13 23 31 29 20 18 12 11 26 15 10 4 6 9 10 9 9 20 23 14 23 17 27 25 32 43 58 69
27 27 22 20 23 25 32 24 28 24 16 10 8 11 23 11 21 24 23 21 17 15 14 18 19 11 10 4 10 8 10 5 7 17 16 11 12 24 29 39 45 50 52 54
23 24 23 29 23 10 8 21 20 22 17 9 9 9 14 10 27 26 25 21 10 10 9 18 13 12 4 5 11 4 8 6 5 14 14 13 18 21 22 33 45 54 54 57
19 22 12 8 5 15 23 3 12 13 13 15 12 27 26 33 27 19 14 12 5 7 12 13 6 4 11 13 10 7 3 5 7 4 11 11 12 17 24 31 33 44 49 58
15 7 7 13 16 8 8 10 10 11 9 15 19 36 27 31 22 14 13 6 3 4 6 5 4 3 10 11 10 8 7 3 7 12 10 12 15 23 31 35 37 42 47 54
18 21 28 18 9 9 7 6 8 12 10 19 21 17 26 8 18 11 10 4 3 9 5 5 3 8 14 10 16 9 6 4 7 12 12 13 17 19 25 32 39 41 46 50
37 12 8 8 10 9 10 11 10 10 12 9 10 6 7 13 16 15 6 12 9 3 5 5 3 23 15 14 15 7 6 7 9 15 14 13 18 22 28 34 34 41 46 54
10 9 10 10 10 12 16 19 18 9 24 13 22 10 7 14 3 9 11 8 6 6 5 2 8 21 19 14 13 16 12 9 10 15 15 17 21 29 32 37 36 45 46 42
12 11 11 17 34 35 24 19 21 21 9 20 15 11 15 7 14 6 4 4 10 5 4 9 26 23 21 17 17 16 12 12 13 15 18 18 22 31 37 37 33 36 39 45
13 18 11 36 28 27 24 25 26 19 16 18 6 7 9 14 7 8 10 7 8 4 8 27 33 29 28 20 19 18 15 18 18 18 22 25 25 29 35 40 34 32 35 38
14 15 38 48 51 45 46 44 19 17 13 3 8 9 11 7 7 8 7 8 10 19 25 22 34 33 35 26 24 22 20 20 23 24 24 24 29 31 30 31 32 27 29 32
Wind_Direction_850mb
345 349 352 353 349 351 0 351 331 346 348 334 360 352 332 317 311 315 321 316 313 318 317 322 318 280 297 320 269 266 262 277 277 286 281 271 272 232 231 227 247 240 256 271
345 348 350 354 358 353 350 326 313 5 345 350 327 335 329 325 324 321 331 315 312 305 313 308 279 287 303 297 322 241 195 236 299 297 297 45 273 240 230 243 258 257 261 261
343 345 347 351 353 352 344 310 321 341 331 351 341 334 316 319 333 338 327 313 314 313 326 314 302 316 304 302 217 273 163 235 231 266 282 303 291 264 262 243 252 263 248 268
334 338 340 345 347 358 351 335 349 360 318 323 316 298 307 322 332 330 324 325 320 319 310 307 321 315 316 329 94 125 236 262 274 274 270 271 273 279 273 257 246 254 272 255
322 328 332 337 346 352 350 351 338 322 306 322 308 315 346 327 323 324 325 321 313 309 314 333 321 315 305 311 157 261 223 273 296 290 285 272 265 25 1 348 318 306 301 285
312 319 325 335 343 0 337 335 325 311 296 329 323 329 321 322 329 325 318 308 312 324 337 322 306 289 279 257 163 238 240 291 297 281 310 308 89 50 5 310 294 288 272 294
312 311 315 324 327 344 332 318 324 302 290 308 315 312 328 321 321 303 309 319 331 335 326 313 311 335 53 135 199 160 239 287 265 288 303 307 76 9 343 297 290 307 273 288
308 307 308 310 314 322 320 321 306 288 280 307 302 322 321 315 321 319 316 333 347 335 322 324 334 328 348 13 254 157 209 274 275 278 311 276 29 337 326 324 297 261 306 295
314 310 303 297 302 308 309 310 276 251 283 262 315 305 310 320 319 314 322 324 335 325 321 326 337 326 332 329 319 324 341 307 262 299 301 303 352 335 327 314 259 335 333 328
318 315 306 296 297 302 312 302 298 249 261 283 302 301 303 306 303 295 308 343 318 347 331 336 336 322 344 344 324 332 334 346 325 324 298 91 5 347 325 19 318 316 317 314
318 319 315 297 294 300 308 298 293 265 251 291 281 292 302 296 288 286 325 326 3 323 352 344 346 326 322 314 313 322 326 335 345 328 306 334 7 348 17 295 304 318 318 332
317 323 322 308 297 293 294 290 287 286 243 276 298 297 293 263 266 271 285 290 311 334 336 343 314 309 302 319 312 341 348 25 312 294 316 351 350 324 327 332 315 327 332 356
309 312 320 320 300 295 285 285 286 283 276 299 290 305 322 257 247 249 251 233 11 329 339 319 271 281 327 310 335 320 329 39 285 326 62 345 318 341 345 346 342 347 23 36
309 307 313 318 310 287 273 277 286 277 281 276 292 304 301 283 256 247 245 258 298 305 307 295 251 284 296 305 296 301 337 315 325 276 344 328 339 341 346 351 5 38 55 63
307 312 309 310 306 286 271 280 281 268 244 297 297 308 339 311 259 238 232 239 263 269 285 253 285 287 297 300 319 318 1 330 320 310 327 303 299 338 357 18 38 61 76 78
303 305 304 304 300 281 273 304 315 282 217 290 304 305 295 262 245 232 224 231 233 232 255 283 259 266 267 311 291 215 275 272 281 277 324 326 343 10 38 78 73 80 91 87
304 310 302 303 291 276 255 250 259 229 196 256 287 277 237 243 215 218 220 211 225 236 255 255 258 270 222 258 283 199 298 317 332 337 346 342 13 37 60 104 102 100 101 101
311 313 303 292 298 287 280 289 268 251 202 248 271 275 282 233 243 221 201 220 219 225 254 260 263 257 238 251 232 246 303 342 26 13 19 15 39 74 77 106 113 105 99 104
317 310 302 302 278 264 270 278 261 205 214 265 256 263 289 256 256 276 201 222 231 200 239 262 265 269 213 315 359 340 333 3 53 45 62 51 79 99 95 103 105 109 103 109
309 297 292 285 255 274 276 216 175 212 224 235 254 247 264 288 298 241 14 301 238 234 215 265 285 304 86 67 59 27 69 94 55 45 91 94 90 119 126 120 120 116 117 119
297 274 257 285 294 269 236 222 206 198 242 224 242 236 251 254 256 274 236 235 225 278 233 251 271 275 103 93 104 87 113 70 53 76 78 114 136 136 133 136 132 128 128 123
285 295 296 276 241 232 257 224 206 210 247 186 240 233 226 249 247 259 262 274 290 250 215 209 244 105 112 125 131 132 129 103 93 89 94 106 127 139 139 132 132 133 126 127
274 280 256 228 212 232 224 211 211 221 223 297 255 252 249 215 235 242 240 222 224 261 244 205 72 133 129 128 142 144 143 119 121 108 103 114 125 134 144 141 137 134 129 125
235 233 246 222 204 229 211 245 282 231 248 318 337 355 12 309 316 234 213 240 184 225 245 53 129 122 134 130 142 143 138 135 132 124 118 122 136 138 140 141 143 141 128 125
239 223 237 222 235 264 268 255 301 283 315 329 329 283 235 272 243 231 278 252 232 42 39 104 119 127 131 126 144 146 138 131 141 138 134 138 143 148 144 136 139 143 143 147
237 228 257 261 273 268 303 318 315 339 334 335 299 261 241 227 255 217 226 268 11 74 109 131 136 133 140 133 146 152 146 141 135 141 143 139 137 146 147 144 144 148 141 143
229 233 231 261 279 280 286 290 292 304 320 198 264 254 233 256 220 217 221 199 137 140 126 117 134 139 148 152 151 151 147 143 145 139 137 138 144 148 146 147 147 146 149 148